ZPTAI SBSJ-SDH4

Flight info

Callsign ZPTAI
Flight time N/A
Altitude FL080
Route VANG BUXUK EDRAT/N0100F065 VFR DCT
Aircraft C172/L-S/N

Departure

Time 2026-05-01 14:44
Airport Professor Urbano Ernesto Stumpf Airport (SBSJ)

Arrival

Time N/A
Airport Aeroclube de Itapeva Airport (SDH4)
Time Latitude Longitude Altitude Speed Heading
2026-05-01 14:30 -23.22276 -45.86371 2124 ft 0 kts 49°
2026-05-01 14:38 -23.22277 -45.86372 2124 ft 1 kts 49°
2026-05-01 14:38 -23.22284 -45.86381 2124 ft 2 kts 49°
2026-05-01 14:38 -23.22296 -45.86396 2124 ft 3 kts 49°
2026-05-01 14:38 -23.22298 -45.86400 2124 ft 3 kts 19°
2026-05-01 14:39 -23.22302 -45.86467 2124 ft 17 kts 246°
2026-05-01 14:39 -23.22317 -45.86520 2124 ft 10 kts 314°
2026-05-01 14:39 -23.22246 -45.86586 2124 ft 16 kts 311°
2026-05-01 14:39 -23.22171 -45.86682 2124 ft 18 kts 309°
2026-05-01 14:40 -23.22082 -45.86787 2124 ft 20 kts 298°
2026-05-01 14:40 -23.22009 -45.86903 2124 ft 22 kts 299°
2026-05-01 14:40 -23.21934 -45.87046 2124 ft 23 kts 301°
2026-05-01 14:40 -23.21949 -45.87126 2124 ft 2 kts 224°
2026-05-01 14:41 -23.21950 -45.87126 2124 ft 0 kts 224°
2026-05-01 14:42 -23.21952 -45.87129 2124 ft 1 kts 224°
2026-05-01 14:42 -23.21959 -45.87136 2124 ft 0 kts 223°
2026-05-01 14:42 -23.21988 -45.87156 2124 ft 11 kts 182°
2026-05-01 14:42 -23.22025 -45.87133 2124 ft 0 kts 134°
2026-05-01 14:43 -23.22126 -45.87019 2124 ft 45 kts 135°
2026-05-01 14:43 -23.22440 -45.86687 2124 ft 77 kts 133°
2026-05-01 14:43 -23.22829 -45.86279 2244 ft 76 kts 131°
2026-05-01 14:44 -23.23196 -45.85880 2378 ft 74 kts 134°
2026-05-01 14:44 -23.23817 -45.85092 2685 ft 65 kts 109°
2026-05-01 14:44 -23.24206 -45.84818 2824 ft 75 kts 169°
2026-05-01 14:45 -23.24639 -45.84651 3037 ft 63 kts 116°
2026-05-01 14:45 -23.25276 -45.84037 3388 ft 61 kts 132°
2026-05-01 14:45 -23.25611 -45.83762 3548 ft 60 kts 132°
2026-05-01 14:46 -23.25935 -45.83490 3694 ft 60 kts 132°
2026-05-01 14:46 -23.26613 -45.82881 3949 ft 67 kts 133°
2026-05-01 14:46 -23.26973 -45.82538 4072 ft 71 kts 134°
2026-05-01 14:47 -23.27346 -45.82172 4191 ft 74 kts 134°
2026-05-01 14:47 -23.27737 -45.81782 4307 ft 78 kts 134°
2026-05-01 14:47 -23.28141 -45.81373 4420 ft 81 kts 134°
2026-05-01 14:48 -23.28982 -45.80506 4625 ft 86 kts 134°
2026-05-01 14:48 -23.29405 -45.80065 4714 ft 87 kts 134°
2026-05-01 14:48 -23.30299 -45.79130 4885 ft 90 kts 134°
2026-05-01 14:49 -23.31138 -45.78249 5032 ft 90 kts 134°
2026-05-01 14:49 -23.32110 -45.78448 5157 ft 96 kts 264°
2026-05-01 14:50 -23.31991 -45.79379 5330 ft 94 kts 277°
2026-05-01 14:50 -23.31738 -45.81333 5577 ft 101 kts 277°
2026-05-01 14:51 -23.31641 -45.82088 5661 ft 102 kts 277°
2026-05-01 14:51 -23.31457 -45.83622 5820 ft 103 kts 277°
2026-05-01 14:52 -23.31282 -45.85173 5972 ft 104 kts 277°
2026-05-01 14:52 -23.31194 -45.85952 6047 ft 104 kts 277°
2026-05-01 14:52 -23.31019 -45.87509 6195 ft 104 kts 276°
2026-05-01 14:53 -23.30941 -45.88294 6268 ft 104 kts 276°
2026-05-01 14:53 -23.30864 -45.89075 6342 ft 104 kts 276°
2026-05-01 14:53 -23.30786 -45.89855 6414 ft 104 kts 276°
2026-05-01 14:53 -23.30708 -45.90636 6487 ft 104 kts 275°
2026-05-01 14:54 -23.30639 -45.91424 6551 ft 105 kts 275°
2026-05-01 14:54 -23.30570 -45.92216 6607 ft 106 kts 275°
2026-05-01 14:54 -23.30499 -45.93017 6661 ft 107 kts 275°
2026-05-01 14:54 -23.30435 -45.93818 6713 ft 107 kts 274°
2026-05-01 14:55 -23.30373 -45.94633 6763 ft 108 kts 274°
2026-05-01 14:55 -23.30310 -45.95448 6816 ft 108 kts 273°
2026-05-01 14:55 -23.30257 -45.96263 6867 ft 109 kts 272°
2026-05-01 14:55 -23.30204 -45.97083 6917 ft 109 kts 272°
2026-05-01 14:56 -23.30154 -45.97900 6967 ft 109 kts 272°
2026-05-01 14:56 -23.30111 -45.98722 7017 ft 109 kts 271°
2026-05-01 14:56 -23.30068 -45.99543 7066 ft 109 kts 272°
2026-05-01 14:56 -23.30035 -46.00350 7114 ft 109 kts 271°
2026-05-01 14:57 -23.30002 -46.01179 7164 ft 109 kts 271°
2026-05-01 14:57 -23.29954 -46.02810 7262 ft 108 kts 270°
2026-05-01 14:57 -23.29938 -46.03635 7311 ft 108 kts 269°
2026-05-01 14:58 -23.29928 -46.04357 7354 ft 108 kts 269°
2026-05-01 14:58 -23.29921 -46.05166 7403 ft 108 kts 268°
2026-05-01 14:58 -23.29921 -46.05979 7451 ft 108 kts 268°
2026-05-01 14:58 -23.29928 -46.06787 7500 ft 108 kts 266°
2026-05-01 14:59 -23.29939 -46.07605 7549 ft 108 kts 266°
2026-05-01 14:59 -23.29960 -46.08414 7597 ft 107 kts 265°
2026-05-01 14:59 -23.29986 -46.09224 7646 ft 107 kts 265°
2026-05-01 14:59 -23.30019 -46.10014 7694 ft 107 kts 264°
2026-05-01 15:00 -23.30111 -46.11647 7793 ft 107 kts 263°
2026-05-01 15:00 -23.30169 -46.12448 7843 ft 107 kts 262°
2026-05-01 15:00 -23.30234 -46.13248 7892 ft 106 kts 261°
2026-05-01 15:01 -23.30308 -46.14041 7953 ft 105 kts 259°
2026-05-01 15:01 -23.30390 -46.14826 8003 ft 105 kts 258°
2026-05-01 15:01 -23.30482 -46.15618 8018 ft 108 kts 258°
2026-05-01 15:01 -23.30588 -46.16433 8019 ft 110 kts 257°
2026-05-01 15:02 -23.30705 -46.17260 8014 ft 112 kts 255°
2026-05-01 15:02 -23.30747 -46.17536 8016 ft 112 kts 254°
2026-05-01 15:02 -23.30973 -46.18915 8019 ft 111 kts 253°
2026-05-01 15:02 -23.31125 -46.19740 8017 ft 112 kts 252°
2026-05-01 15:03 -23.31288 -46.20563 8017 ft 111 kts 251°
2026-05-01 15:03 -23.31462 -46.21382 8017 ft 111 kts 250°
2026-05-01 15:03 -23.31646 -46.22193 8017 ft 111 kts 249°
2026-05-01 15:03 -23.31845 -46.23000 8017 ft 110 kts 246°
2026-05-01 15:04 -23.32073 -46.23792 8017 ft 110 kts 246°
2026-05-01 15:04 -23.32306 -46.24586 8017 ft 110 kts 246°
2026-05-01 15:04 -23.32537 -46.25377 8017 ft 110 kts 246°
2026-05-01 15:04 -23.32768 -46.26166 8017 ft 110 kts 246°
2026-05-01 15:05 -23.32999 -46.26956 8017 ft 110 kts 246°
2026-05-01 15:05 -23.33230 -46.27746 8017 ft 110 kts 246°
2026-05-01 15:05 -23.33462 -46.28537 8017 ft 110 kts 246°
2026-05-01 15:05 -23.33694 -46.29331 8002 ft 112 kts 246°
2026-05-01 15:06 -23.33931 -46.30137 7998 ft 112 kts 246°
2026-05-01 15:06 -23.34166 -46.30941 8000 ft 112 kts 246°
2026-05-01 15:06 -23.34403 -46.31748 8000 ft 112 kts 246°
2026-05-01 15:06 -23.34641 -46.32555 8000 ft 113 kts 246°
2026-05-01 15:07 -23.34879 -46.33365 8001 ft 113 kts 246°
2026-05-01 15:07 -23.35116 -46.34179 8001 ft 114 kts 246°
2026-05-01 15:07 -23.35347 -46.35001 8002 ft 114 kts 247°
2026-05-01 15:07 -23.35578 -46.35824 8002 ft 114 kts 247°
2026-05-01 15:08 -23.35812 -46.36650 8002 ft 115 kts 247°
2026-05-01 15:08 -23.36047 -46.37480 8002 ft 115 kts 247°
2026-05-01 15:08 -23.36285 -46.38312 8003 ft 116 kts 247°
2026-05-01 15:08 -23.36525 -46.39147 8003 ft 116 kts 247°
2026-05-01 15:09 -23.36768 -46.39985 8004 ft 116 kts 247°
2026-05-01 15:09 -23.37012 -46.40824 8001 ft 117 kts 248°
2026-05-01 15:09 -23.37257 -46.41677 8004 ft 119 kts 249°
2026-05-01 15:09 -23.37500 -46.42534 8011 ft 119 kts 249°
2026-05-01 15:10 -23.37745 -46.43396 8012 ft 120 kts 249°
2026-05-01 15:10 -23.38241 -46.45135 8006 ft 121 kts 249°
2026-05-01 15:10 -23.38490 -46.46009 8005 ft 121 kts 249°
2026-05-01 15:11 -23.38739 -46.46881 8004 ft 121 kts 249°
2026-05-01 15:11 -23.39237 -46.48627 8003 ft 121 kts 249°
2026-05-01 15:11 -23.39485 -46.49499 8003 ft 121 kts 249°
2026-05-01 15:12 -23.39734 -46.50372 8003 ft 121 kts 249°
2026-05-01 15:12 -23.40231 -46.52116 8003 ft 121 kts 249°
2026-05-01 15:12 -23.40480 -46.52989 8003 ft 121 kts 249°
2026-05-01 15:13 -23.41225 -46.55606 8003 ft 121 kts 249°
2026-05-01 15:14 -23.41722 -46.57351 8004 ft 121 kts 249°
2026-05-01 15:14 -23.41971 -46.58223 8004 ft 121 kts 249°
2026-05-01 15:14 -23.42468 -46.59968 8005 ft 121 kts 249°
2026-05-01 15:15 -23.42965 -46.61713 8005 ft 121 kts 249°
2026-05-01 15:15 -23.43463 -46.63457 8006 ft 121 kts 249°
2026-05-01 15:16 -23.43959 -46.65200 8013 ft 121 kts 249°
2026-05-01 15:16 -23.44455 -46.66939 8017 ft 121 kts 249°
2026-05-01 15:17 -23.44953 -46.68682 8020 ft 121 kts 249°
2026-05-01 15:18 -23.45698 -46.71293 8024 ft 121 kts 249°
2026-05-01 15:18 -23.45948 -46.72165 8023 ft 121 kts 249°
2026-05-01 15:19 -23.46697 -46.74786 8024 ft 121 kts 249°
2026-05-01 15:19 -23.47197 -46.76533 8025 ft 121 kts 249°
2026-05-01 15:19 -23.47446 -46.77406 8025 ft 121 kts 249°
2026-05-01 15:20 -23.47946 -46.79154 8025 ft 121 kts 249°
2026-05-01 15:20 -23.48195 -46.80026 8025 ft 121 kts 249°
2026-05-01 15:20 -23.48445 -46.80900 8025 ft 121 kts 249°
2026-05-01 15:21 -23.48695 -46.81775 8026 ft 121 kts 249°
2026-05-01 15:21 -23.48945 -46.82648 8026 ft 121 kts 249°
2026-05-01 15:21 -23.49195 -46.83522 8026 ft 121 kts 249°
2026-05-01 15:21 -23.49444 -46.84394 8026 ft 121 kts 249°
2026-05-01 15:22 -23.49944 -46.86142 8027 ft 121 kts 249°
2026-05-01 15:22 -23.50194 -46.87016 8027 ft 121 kts 249°
2026-05-01 15:22 -23.50445 -46.87891 8022 ft 122 kts 250°
2026-05-01 15:23 -23.50697 -46.88770 8020 ft 122 kts 250°
2026-05-01 15:23 -23.50950 -46.89653 8020 ft 122 kts 250°
2026-05-01 15:23 -23.51201 -46.90534 8020 ft 122 kts 250°
2026-05-01 15:23 -23.51451 -46.91417 8020 ft 122 kts 250°
2026-05-01 15:24 -23.51700 -46.92298 8021 ft 122 kts 250°
2026-05-01 15:24 -23.51948 -46.93178 8021 ft 122 kts 250°
2026-05-01 15:24 -23.52196 -46.94060 8021 ft 122 kts 250°
2026-05-01 15:24 -23.52443 -46.94942 8021 ft 122 kts 250°
2026-05-01 15:25 -23.52689 -46.95825 8021 ft 122 kts 250°
2026-05-01 15:25 -23.52934 -46.96699 8021 ft 122 kts 250°
2026-05-01 15:25 -23.53182 -46.97587 8021 ft 122 kts 250°
2026-05-01 15:25 -23.53427 -46.98467 8021 ft 122 kts 250°
2026-05-01 15:26 -23.53674 -46.99350 8021 ft 122 kts 249°
2026-05-01 15:26 -23.53917 -47.00230 8024 ft 122 kts 250°
2026-05-01 15:26 -23.54159 -47.01112 8024 ft 122 kts 250°
2026-05-01 15:26 -23.54401 -47.01993 8024 ft 122 kts 250°
2026-05-01 15:27 -23.54643 -47.02873 8024 ft 122 kts 250°
2026-05-01 15:27 -23.54887 -47.03753 8023 ft 122 kts 250°
2026-05-01 15:27 -23.55131 -47.04636 8023 ft 122 kts 250°
2026-05-01 15:28 -23.55622 -47.06395 8027 ft 121 kts 249°
2026-05-01 15:28 -23.55871 -47.07269 8028 ft 121 kts 249°
2026-05-01 15:28 -23.56122 -47.08145 8029 ft 121 kts 249°
2026-05-01 15:29 -23.56618 -47.09896 8028 ft 121 kts 250°
2026-05-01 15:29 -23.56859 -47.10774 8029 ft 121 kts 249°
2026-05-01 15:29 -23.57348 -47.12546 8018 ft 123 kts 252°
2026-05-01 15:30 -23.57756 -47.14033 8015 ft 123 kts 252°
2026-05-01 15:31 -23.58831 -47.17899 8014 ft 123 kts 252°
2026-05-01 15:31 -23.59330 -47.19681 8015 ft 123 kts 252°
2026-05-01 15:32 -23.59829 -47.21464 8015 ft 123 kts 252°
2026-05-01 15:32 -23.60328 -47.23248 8016 ft 123 kts 252°
2026-05-01 15:33 -23.61068 -47.25925 8016 ft 123 kts 252°
2026-05-01 15:34 -23.61806 -47.28602 8017 ft 123 kts 252°